FW5284 Weather Reports


Display with metric or nautical units.
time (UTC)temp
F
wind
direction
speed
MPH
gust
MPH
rain 1hr
in
rain 24hr
in
rain mn
in
humidity
%
barometer
mb
20260906220516 67 253 2.0 4.0 0.00 0.05 0.03 57 1015.3
20260906220033 67 300 0.0 3.0 0.00 0.05 0.03 57 1015.3
20260906215515 67 262 0.0 5.0 0.00 0.05 0.03 57 1015.4
20260906215019 68 167 0.0 5.0 0.00 0.05 0.03 55 1015.3
20260906214537 68 228 1.0 4.0 0.00 0.05 0.03 56 1015.3
20260906214014 68 359 0.0 4.0 0.00 0.05 0.03 56 1015.3
20260906213506 68 65 0.0 3.0 0.00 0.05 0.03 54 1015.2
20260906213018 68 39 0.0 4.0 0.00 0.05 0.03 54 1015.2
20260906212510 68 167 1.0 4.0 0.00 0.05 0.03 53 1015.2
20260906212010 68 145 0.0 4.0 0.00 0.05 0.03 52 1015.1
20260906211538 68 36 1.0 4.0 0.00 0.05 0.03 50 1015.1
20260906211014 68 146 1.0 4.0 0.00 0.05 0.03 51 1015.1
20260906210504 68 48 1.0 5.0 0.00 0.05 0.03 53 1015.1
20260906210006 68 44 2.0 5.0 0.00 0.05 0.03 51 1015.2
20260906205504 68 48 2.0 5.0 0.00 0.05 0.03 55 1015.1
20260906205003 68 39 1.0 4.0 0.00 0.05 0.03 52 1014.9
20260906204511 68 20 0.0 4.0 0.00 0.05 0.03 55 1015.0
20260906204003 68 185 1.0 4.0 0.00 0.05 0.03 56 1014.9
20260906203506 68 27 1.0 4.0 0.00 0.05 0.03 59 1014.9
20260906203015 68 115 0.0 3.0 0.00 0.05 0.03 57 1015.0
20260906202511 69 50 1.0 3.0 0.00 0.05 0.03 60 1015.1
20260906202014 69 60 0.0 3.0 0.00 0.05 0.03 57 1015.1
20260906201536 70 64 0.0 2.0 0.00 0.05 0.03 56 1014.9
20260906201013 70 2 0.0 3.0 0.00 0.05 0.03 56 1014.9
20260906200505 70 307 0.0 3.0 0.00 0.05 0.03 56 1014.8
20260906200004 70 106 1.0 3.0 0.00 0.05 0.03 58 1014.9
20260906195503 69 222 1.0 5.0 0.00 0.05 0.03 55 1014.8
20260906195003 69 32 0.0 5.0 0.00 0.05 0.03 57 1014.9
20260906194508 69 21 0.0 5.0 0.00 0.05 0.03 55 1014.8
20260906194005 69 55 0.0 5.0 0.00 0.05 0.03 61 1014.8
20260906193506 69 33 1.0 5.0 0.00 0.05 0.03 59 1014.8
20260906193022 69 79 0.0 3.0 0.00 0.05 0.03 58 1014.7
20260906192507 69 70 1.0 3.0 0.00 0.05 0.03 61 1014.7
20260906192009 69 321 0.0 6.0 0.00 0.05 0.03 60 1014.7
20260906191518 69 307 0.0 6.0 0.00 0.05 0.03 59 1014.7
20260906191011 69 162 1.0 3.0 0.00 0.05 0.03 60 1014.8
20260906190509 69 228 0.0 4.0 0.00 0.05 0.03 59 1014.8
20260906190027 70 79 1.0 4.0 0.00 0.05 0.03 57 1014.9
20260906185513 70 49 1.0 4.0 0.00 0.05 0.03 59 1014.9
20260906185007 70 109 0.0 5.0 0.00 0.05 0.03 58 1014.9
20260906184505 70 297 1.0 5.0 0.00 0.05 0.03 62 1014.8
20260906184004 70 288 1.0 5.0 0.00 0.05 0.03 62 1014.9
20260906183504 70 300 3.0 5.0 0.00 0.05 0.03 61 1015.1
20260906183011 70 302 1.0 4.0 0.00 0.05 0.03 64 1015.1
20260906182505 69 266 0.0 3.0 0.00 0.05 0.03 62 1015.2
20260906182008 69 2 0.0 3.0 0.00 0.05 0.03 61 1015.2
20260906181516 69 166 1.0 3.0 0.00 0.05 0.03 63 1015.2
20260906181009 69 262 0.0 3.0 0.00 0.05 0.03 63 1015.2
20260906180513 69 338 0.0 3.0 0.00 0.05 0.03 64 1015.2
20260906180021 69 132 1.0 3.0 0.00 0.05 0.03 67 1015.2
20260906175512 69 51 0.0 4.0 0.00 0.05 0.03 68 1015.4
20260906175010 68 304 1.0 6.0 0.00 0.05 0.03 68 1015.4
20260906174546 68 277 1.0 6.0 0.00 0.05 0.03 67 1015.5
20260906174014 69 294 1.0 6.0 0.00 0.05 0.03 68 1015.6
20260906173515 69 37 0.0 3.0 0.00 0.05 0.03 68 1015.6
20260906173008 69 354 1.0 3.0 0.00 0.05 0.03 65 1015.6
20260906172506 69 70 0.0 4.0 0.00 0.05 0.03 66 1015.7
20260906172003 70 127 1.0 4.0 0.00 0.05 0.03 63 1015.7
20260906171512 70 54 1.0 4.0 0.00 0.05 0.03 64 1015.7
20260906171007 70 77 0.0 4.0 0.00 0.05 0.03 62 1015.7
20260906170507 70 236 1.0 6.0 0.00 0.05 0.03 62 1015.8
20260906170019 70 21 2.0 6.0 0.00 0.05 0.03 64 1015.8
20260906165510 69 148 1.0 4.0 0.00 0.05 0.03 64 1015.8
20260906165013 69 136 0.0 5.0 0.00 0.05 0.03 64 1015.9
20260906164524 69 55 1.0 5.0 0.00 0.05 0.03 65 1016.0
20260906164013 69 167 1.0 4.0 0.00 0.05 0.03 70 1016.1
20260906163517 68 248 1.0 3.0 0.00 0.05 0.03 68 1016.1
20260906163027 68 314 0.0 3.0 0.00 0.05 0.03 71 1016.0
20260906162514 67 309 0.0 3.0 0.00 0.05 0.03 75 1016.0
20260906162015 67 41 0.0 4.0 0.00 0.05 0.03 73 1016.1
20260906161510 67 108 0.0 4.0 0.00 0.05 0.03 73 1016.1
20260906161006 67 10 1.0 4.0 0.00 0.05 0.03 75 1016.2
20260906160508 67 97 0.0 2.0 0.00 0.05 0.03 74 1016.2
20260906160015 68 79 0.0 4.0 0.00 0.05 0.03 75 1016.2
20260906155507 68 347 0.0 4.0 0.00 0.05 0.03 74 1016.2
20260906155009 68 238 1.0 4.0 0.00 0.05 0.03 77 1016.3
20260906154525 67 51 1.0 5.0 0.00 0.05 0.03 78 1016.3
20260906154012 67 281 2.0 5.0 0.00 0.05 0.03 79 1016.3
20260906153510 66 283 1.0 5.0 0.00 0.05 0.03 80 1016.3
20260906153035 66 30 0.0 3.0 0.00 0.05 0.03 81 1016.4
20260906152514 66 293 0.0 3.0 0.00 0.05 0.03 78 1016.4
20260906152015 66 67 1.0 5.0 0.00 0.05 0.03 77 1016.4
20260906151544 66 101 1.0 5.0 0.00 0.05 0.03 78 1016.4
20260906151015 66 315 1.0 4.0 0.00 0.05 0.03 82 1016.4
20260906150517 65 103 1.0 5.0 0.00 0.05 0.03 85 1016.5
20260906150020 64 290 1.0 5.0 0.00 0.05 0.03 86 1016.5
20260906145504 63 76 1.0 3.0 0.00 0.05 0.03 89 1016.7
20260906145008 62 110 0.0 0.0 0.00 0.05 0.03 89 1016.8
20260906144515 62 110 0.0 0.0 0.00 0.05 0.03 89 1016.9
20260906144002 61 110 0.0 0.0 0.00 0.05 0.03 89 1016.8
20260906143503 62 89 0.0 0.0 0.00 0.05 0.03 89 1016.8
20260906143003 61 89 0.0 0.0 0.00 0.05 0.03 89 1016.8
20260906142502 62 29 0.0 3.0 0.00 0.05 0.03 88 1016.8
20260906142004 62 25 0.0 3.0 0.00 0.05 0.03 89 1016.7
20260906141503 62 355 0.0 0.0 0.00 0.05 0.03 92 1016.6
20260906141003 61 292 0.0 0.0 0.00 0.05 0.03 91 1016.6
20260906140505 61 360 0.0 0.0 0.00 0.05 0.03 93 1016.6
20260906140014 60 13 0.0 0.0 0.00 0.05 0.03 93 1016.6
20260906135504 60 13 0.0 1.0 0.00 0.05 0.03 93 1016.6
20260906135005 60 13 0.0 1.0 0.00 0.05 0.03 93 1016.6
20260906134511 60 276 0.0 1.0 0.00 0.05 0.03 94 1016.6
20260906134008 60 276 0.0 3.0 0.00 0.05 0.03 94 1016.6
20260906133507 60 288 1.0 3.0 0.00 0.05 0.03 95 1016.7
20260906133027 59 329 0.0 2.0 0.00 0.05 0.03 95 1016.6
20260906132502 59 329 0.0 2.0 0.00 0.05 0.03 95 1016.7
20260906132002 59 329 0.0 1.0 0.00 0.05 0.03 95 1016.7
20260906131504 59 329 0.0 1.0 0.00 0.05 0.03 95 1016.6
20260906131003 59 329 0.0 1.0 0.00 0.05 0.03 95 1016.6
20260906130503 59 329 0.0 2.0 0.00 0.05 0.03 95 1016.6
20260906130007 59 329 0.0 2.0 0.00 0.05 0.03 95 1016.6
20260906125504 59 313 0.0 0.0 0.00 0.05 0.03 95 1016.6
20260906125004 59 313 0.0 2.0 0.00 0.05 0.03 95 1016.5
20260906124512 59 313 0.0 2.0 0.00 0.05 0.03 95 1016.5
20260906124008 59 313 0.0 2.0 0.00 0.05 0.03 96 1016.4
20260906123507 59 31 0.0 0.0 0.01 0.05 0.03 95 1016.4
20260906123029 59 31 0.0 0.0 0.01 0.05 0.03 95 1016.4
20260906122508 59 31 0.0 1.0 0.01 0.05 0.03 96 1016.3
20260906122010 58 24 0.0 1.0 0.01 0.05 0.03 96 1016.2
20260906121526 58 1 0.0 1.0 0.01 0.05 0.03 95 1016.2
20260906121002 58 1 0.0 1.0 0.01 0.05 0.03 95 1016.3
20260906120502 57 1 0.0 0.0 0.01 0.05 0.03 95 1016.3
20260906120004 57 1 0.0 0.0 0.01 0.05 0.03 95 1016.3
20260906115502 57 1 0.0 0.0 0.01 0.05 0.03 95 1016.3
20260906115003 57 1 0.0 0.0 0.01 0.05 0.03 95 1016.2
20260906114507 57 1 0.0 0.0 0.01 0.05 0.03 95 1016.2
20260906114005 57 34 0.0 0.0 0.01 0.05 0.03 95 1016.3
20260906113506 57 34 0.0 0.0 0.00 0.04 0.02 95 1016.2
20260906113015 56 34 0.0 0.0 0.00 0.04 0.02 94 1016.2
20260906112509 56 34 0.0 0.0 0.00 0.04 0.02 94 1016.2
20260906112010 56 34 0.0 0.0 0.00 0.04 0.02 94 1016.2
20260906111523 56 34 0.0 0.0 0.00 0.04 0.02 94 1016.2
20260906111011 56 34 0.0 0.0 0.00 0.04 0.02 94 1016.1
20260906110512 56 34 0.0 0.0 0.00 0.04 0.02 94 1016.0
20260906110028 56 34 0.0 0.0 0.00 0.04 0.02 94 1015.9
20260906105512 56 34 0.0 0.0 0.00 0.04 0.02 94 1015.8
20260906105003 56 34 0.0 0.0 0.00 0.04 0.02 94 1015.8
20260906104507 56 34 0.0 0.0 0.00 0.04 0.02 94 1015.7
20260906104003 56 34 0.0 0.0 0.00 0.04 0.02 94 1015.7
20260906103503 56 34 0.0 0.0 0.00 0.04 0.02 94 1015.6
20260906103010 56 34 0.0 0.0 0.00 0.04 0.02 94 1015.5
20260906102506 56 34 0.0 0.0 0.00 0.04 0.02 94 1015.4
20260906102005 56 34 0.0 0.0 0.00 0.04 0.02 94 1015.3
20260906101526 56 34 0.0 0.0 0.00 0.04 0.02 94 1015.3
20260906101007 56 34 0.0 0.0 0.00 0.04 0.02 94 1015.3
20260906100511 56 34 0.0 0.0 0.00 0.04 0.02 94 1015.3
20260906100026 56 34 0.0 0.0 0.00 0.04 0.02 94 1015.3
20260906095511 56 34 0.0 0.0 0.00 0.04 0.02 93 1015.3
20260906095011 56 34 0.0 0.0 0.00 0.04 0.02 93 1015.3
20260906094528 56 34 0.0 0.0 0.00 0.04 0.02 93 1015.3
20260906094014 56 34 0.0 0.0 0.00 0.04 0.02 94 1015.3
20260906093506 56 34 0.0 0.0 0.00 0.04 0.02 94 1015.3
20260906093008 56 34 0.0 0.0 0.00 0.04 0.02 93 1015.1
20260906092504 56 34 0.0 0.0 0.00 0.04 0.02 93 1015.0
20260906092009 56 34 0.0 0.0 0.00 0.04 0.02 93 1015.0
20260906091512 56 34 0.0 0.0 0.00 0.04 0.02 93 1014.9
20260906091005 56 34 0.0 0.0 0.00 0.04 0.02 93 1014.8
20260906090507 56 34 0.0 0.0 0.00 0.04 0.02 93 1014.7
20260906090036 56 34 0.0 0.0 0.00 0.04 0.02 93 1014.7
20260906085512 56 34 0.0 0.0 0.00 0.04 0.02 93 1014.8
20260906085009 56 34 0.0 0.0 0.00 0.04 0.02 93 1014.8
20260906084526 57 34 0.0 0.0 0.00 0.04 0.02 93 1014.7
20260906084012 57 34 0.0 0.0 0.00 0.04 0.02 93 1014.7
20260906083514 57 34 0.0 0.0 0.01 0.04 0.02 93 1014.8
20260906083034 57 34 0.0 0.0 0.01 0.04 0.02 93 1014.9
20260906082513 57 34 0.0 0.0 0.01 0.04 0.02 93 1014.9
20260906082019 57 34 0.0 0.0 0.01 0.04 0.02 93 1014.8
20260906081512 57 34 0.0 0.0 0.02 0.04 0.02 93 1014.9
20260906081003 57 34 0.0 0.0 0.02 0.04 0.02 93 1014.9
20260906080507 57 34 0.0 0.0 0.02 0.04 0.02 92 1014.8
20260906080015 57 34 0.0 0.0 0.02 0.04 0.02 92 1014.9
20260906075507 57 34 0.0 0.0 0.02 0.04 0.02 92 1014.9
20260906075009 57 34 0.0 0.0 0.02 0.04 0.02 92 1014.9
20260906074523 58 34 0.0 0.0 0.02 0.04 0.02 92 1015.1
20260906074011 58 34 0.0 0.0 0.02 0.04 0.02 92 1015.1
20260906073510 58 34 0.0 0.0 0.01 0.03 0.01 92 1015.1
20260906073027 58 34 0.0 0.0 0.01 0.03 0.01 92 1015.0
20260906072514 57 34 0.0 0.0 0.01 0.03 0.01 91 1014.9
20260906072017 57 34 0.0 0.0 0.01 0.03 0.01 91 1014.9
20260906071532 58 34 0.0 0.0 0.00 0.02 0.00 91 1014.9
20260906071017 58 34 0.0 0.0 0.00 0.02 0.00 91 1014.7
20260906070515 58 34 0.0 0.0 0.00 0.02 0.00 91 1014.6
20260906070012 58 34 0.0 0.0 0.00 0.02 0.00 91 1014.7
20260906065510 58 34 0.0 0.0 0.00 0.02 0.00 90 1014.6
20260906065008 58 34 0.0 0.0 0.00 0.02 0.00 91 1014.5
20260906064515 58 34 0.0 0.0 0.00 0.02 0.00 91 1014.4
20260906064011 58 34 0.0 0.0 0.00 0.02 0.00 91 1014.3
20260906063509 58 34 0.0 0.0 0.00 0.02 0.00 91 1014.2
20260906063040 58 34 0.0 0.0 0.00 0.02 0.00 91 1014.3
20260906062512 58 34 0.0 0.0 0.00 0.02 0.00 91 1014.3
20260906062012 58 34 0.0 1.0 0.00 0.02 0.00 91 1014.4
20260906061532 58 34 0.0 2.0 0.00 0.02 0.00 91 1014.3
20260906061015 58 44 0.0 2.0 0.00 0.02 0.00 91 1014.3
20260906060516 58 44 0.0 4.0 0.00 0.02 0.00 91 1014.3
20260906060009 59 71 1.0 4.0 0.00 0.02 0.00 91 1014.4
20260906055503 59 47 0.0 0.0 0.00 0.02 0.00 92 1014.5
20260906055002 59 47 0.0 0.0 0.00 0.02 0.00 92 1014.4
20260906054502 59 47 0.0 0.0 0.00 0.02 0.00 92 1014.4
20260906054002 59 47 0.0 0.0 0.00 0.02 0.00 93 1014.4
20260906053502 59 47 0.0 0.0 0.00 0.02 0.00 92 1014.5
20260906053004 59 47 0.0 0.0 0.00 0.02 0.00 92 1014.5
20260906052503 59 47 0.0 0.0 0.00 0.02 0.00 93 1014.5
20260906052002 59 47 0.0 0.0 0.00 0.02 0.00 93 1014.5
20260906051506 59 47 0.0 0.0 0.00 0.02 0.00 93 1014.5
20260906051004 60 47 0.0 0.0 0.00 0.02 0.00 93 1014.5
20260906050502 60 47 0.0 0.0 0.00 0.02 0.00 93 1014.5
20260906050006 60 47 0.0 0.0 0.00 0.02 0.00 93 1014.5
20260906045504 60 47 0.0 0.0 0.00 0.02 0.00 93 1014.5
20260906045008 60 47 0.0 0.0 0.00 0.02 0.00 93 1014.5
20260906044512 60 47 0.0 0.0 0.00 0.02 0.00 93 1014.5
20260906044004 60 47 0.0 0.0 0.00 0.02 0.00 93 1014.6
20260906043502 60 47 0.0 0.0 0.00 0.02 0.00 93 1014.5
20260906043003 60 47 0.0 0.0 0.00 0.02 0.00 93 1014.5
20260906042501 60 47 0.0 0.0 0.00 0.02 0.00 94 1014.5
20260906042003 60 47 0.0 0.0 0.00 0.02 0.00 94 1014.5
20260906041506 60 47 0.0 0.0 0.00 0.02 0.00 94 1014.5
20260906041002 60 47 0.0 0.0 0.00 0.02 0.00 94 1014.5
20260906040504 60 47 0.0 0.0 0.00 0.02 0.00 94 1014.5
20260906040016 60 47 0.0 0.0 0.00 0.02 0.00 94 1014.5
20260906035502 60 47 0.0 0.0 0.00 0.02 0.02 94 1014.5
20260906035004 60 47 0.0 0.0 0.00 0.02 0.02 94 1014.5
20260906034508 60 47 0.0 0.0 0.00 0.02 0.02 94 1014.5
20260906034003 60 47 0.0 0.0 0.00 0.02 0.02 94 1014.4
20260906033508 60 47 0.0 0.0 0.00 0.02 0.02 93 1014.3
20260906033014 60 47 0.0 0.0 0.00 0.02 0.02 93 1014.2
20260906032502 60 47 0.0 0.0 0.00 0.02 0.02 93 1014.2
20260906032003 60 47 0.0 0.0 0.00 0.02 0.02 94 1014.2
20260906031504 60 47 0.0 0.0 0.00 0.02 0.02 93 1014.2
20260906031002 60 47 0.0 0.0 0.00 0.02 0.02 93 1014.1
20260906030503 60 47 0.0 0.0 0.00 0.02 0.02 93 1014.2
20260906030004 61 47 0.0 0.0 0.00 0.02 0.02 93 1014.2
20260906025502 60 47 0.0 0.0 0.00 0.02 0.02 93 1014.2
20260906025003 60 47 0.0 0.0 0.00 0.02 0.02 93 1014.3
20260906024504 61 47 0.0 0.0 0.00 0.02 0.02 93 1014.3
20260906024003 61 47 0.0 0.0 0.00 0.02 0.02 93 1014.3
20260906023506 61 47 0.0 0.0 0.00 0.02 0.02 93 1014.3
20260906023011 61 47 0.0 0.0 0.00 0.02 0.02 93 1014.3
20260906022507 61 47 0.0 0.0 0.00 0.02 0.02 93 1014.3
20260906022007 61 47 0.0 0.0 0.00 0.02 0.02 93 1014.2
20260906021514 61 47 0.0 0.0 0.00 0.02 0.02 93 1014.1
20260906021008 61 47 0.0 0.0 0.00 0.02 0.02 93 1014.1
20260906020502 61 47 0.0 0.0 0.00 0.02 0.02 93 1014.1
20260906020004 61 47 0.0 0.0 0.00 0.02 0.02 93 1014.1
20260906015504 61 47 0.0 0.0 0.00 0.02 0.02 93 1014.1
20260906015003 61 47 0.0 0.0 0.00 0.02 0.02 93 1014.1
20260906014504 61 47 0.0 0.0 0.00 0.02 0.02 93 1014.1
20260906014003 61 47 0.0 0.0 0.00 0.02 0.02 93 1014.1
20260906013504 61 47 0.0 0.0 0.00 0.02 0.02 93 1014.1
20260906013005 61 47 0.0 0.0 0.00 0.02 0.02 92 1014.1
20260906012503 61 47 0.0 0.0 0.00 0.02 0.02 92 1014.2
20260906012004 61 47 0.0 0.0 0.00 0.02 0.02 92 1014.2
20260906011514 61 47 0.0 0.0 0.01 0.02 0.02 92 1014.2
20260906011012 61 47 0.0 0.0 0.01 0.02 0.02 92 1014.2
20260906010508 61 47 0.0 0.0 0.01 0.02 0.02 92 1014.2
20260906010018 61 47 0.0 0.0 0.01 0.02 0.02 92 1014.2
20260906005508 61 47 0.0 0.0 0.01 0.02 0.02 92 1014.2
20260906005003 61 47 0.0 0.0 0.01 0.02 0.02 92 1014.1
20260906004503 61 47 0.0 0.0 0.01 0.02 0.02 92 1014.0
20260906004002 61 47 0.0 0.0 0.01 0.02 0.02 92 1014.0
20260906003503 61 47 0.0 0.0 0.01 0.02 0.02 92 1014.1
20260906003005 61 47 0.0 0.0 0.01 0.02 0.02 92 1013.9
20260906002503 61 47 0.0 0.0 0.01 0.02 0.02 92 1013.7
20260906002004 61 47 0.0 0.0 0.01 0.02 0.02 92 1013.6
20260906001512 62 47 0.0 0.0 0.00 0.01 0.01 92 1013.5
20260906001005 62 47 0.0 1.0 0.00 0.01 0.01 92 1013.6
20260906000506 62 47 0.0 1.0 0.00 0.01 0.01 92 1013.6
20260906000019 62 47 0.0 0.0 0.00 0.01 0.01 92 1013.6
20260905235508 62 47 0.0 0.0 0.00 0.01 0.01 92 1013.6
20260905235010 62 47 0.0 0.0 0.00 0.01 0.01 92 1013.7
20260905234527 62 47 0.0 0.0 0.01 0.01 0.01 92 1013.5
20260905234011 62 47 0.0 0.0 0.01 0.01 0.01 91 1013.5
20260905233514 62 47 0.0 0.0 0.01 0.01 0.01 91 1013.4
20260905233006 62 47 0.0 0.0 0.01 0.01 0.01 91 1013.4
20260905232503 62 47 0.0 0.0 0.01 0.01 0.01 90 1013.2
20260905232004 62 47 0.0 0.0 0.01 0.01 0.01 90 1013.2
20260905231521 62 47 0.0 0.0 0.01 0.01 0.01 89 1013.3
20260905231003 63 47 0.0 0.0 0.01 0.01 0.01 89 1013.3
20260905230504 63 41 0.0 0.0 0.01 0.01 0.01 88 1013.3
20260905230019 63 37 0.0 0.0 0.01 0.01 0.01 87 1013.4
20260905225507 64 37 0.0 3.0 0.01 0.01 0.01 87 1013.3
20260905225008 64 36 0.0 3.0 0.01 0.01 0.01 86 1013.4
20260905224518 65 35 1.0 3.0 0.00 0.00 0.00 85 1013.3
20260905224008 65 78 0.0 2.0 0.00 0.00 0.00 85 1013.2
20260905223510 65 77 1.0 3.0 0.00 0.00 0.00 86 1013.1
20260905223023 65 77 0.0 3.0 0.00 0.00 0.00 86 1013.1
20260905222514 65 39 0.0 0.0 0.00 0.00 0.00 87 1013.1
20260905222017 65 39 0.0 0.0 0.00 0.00 0.00 86 1013.0
20260905221506 65 39 0.0 0.0 0.00 0.00 0.00 86 1012.9
20260905221005 65 39 0.0 0.0 0.00 0.00 0.00 85 1012.9